Location: Munich
(48.1349°N, 11.5617°E)
Time: 02:39:31
(UTC+02:00)

ISS - Visible Passes

Search period start: 21 July 2017 00:00
Search period end: 31 July 2017 00:00
Orbit: 400 x 408 km, 51.6° (Epoch: 21 July)

Date Brightness Start Highest point End Pass type
(mag) Time Alt. Az. Time Alt. Az. Time Alt. Az.
21 Jul -1.7 00:29:21 19° ENE 00:29:21 19° ENE 00:30:24 10° ENE visible
21 Jul -2.8 02:01:57 21° WNW 02:03:46 45° N 02:06:56 10° ENE visible
21 Jul -3.1 03:37:22 10° WNW 03:40:35 54° NNE 03:43:47 10° E visible
22 Jul -3.1 01:10:45 44° NW 01:11:24 53° NNW 01:14:36 10° ENE visible
22 Jul -2.7 02:45:03 10° WNW 02:48:12 45° N 02:51:22 10° E visible
22 Jul -3.9 04:21:34 10° WNW 04:24:49 69° SSW 04:28:04 10° ESE visible
22 Jul -2.9 22:39:57 10° SSW 22:42:45 27° SE 22:45:34 10° E visible
23 Jul -3.6 00:15:47 10° WSW 00:19:02 70° NNW 00:22:17 10° ENE visible
23 Jul -2.6 01:52:40 10° WNW 01:55:48 42° N 01:58:56 10° ENE visible
23 Jul -3.8 03:29:15 10° WNW 03:32:31 81° NNE 03:35:48 10° ESE visible
23 Jul -2.2 21:48:29 10° S 21:50:38 17° SE 21:52:48 10° E visible
23 Jul -4.0 23:23:27 10° WSW 23:26:42 83° SSE 23:29:58 10° ENE visible
24 Jul -2.7 01:00:14 10° W 01:03:23 43° N 01:06:31 10° ENE visible
24 Jul -3.3 02:36:56 10° WNW 02:40:10 59° NNE 02:43:24 10° E visible
24 Jul -3.3 04:13:32 10° WNW 04:16:34 36° SW 04:19:35 10° SE visible
24 Jul -3.8 22:31:15 10° SW 22:34:25 52° SSE 22:37:37 10° ENE visible
25 Jul -2.9 00:07:47 10° W 00:10:56 49° N 00:14:08 10° ENE visible
25 Jul -2.9 01:44:36 10° WNW 01:47:46 48° N 01:50:57 10° E visible
25 Jul -3.9 03:21:06 10° WNW 03:24:19 58° SSW 03:27:32 10° SE visible
25 Jul -1.8 04:59:16 10° WSW 05:00:13 11° SW 05:01:11 10° SSW visible
25 Jul -3.1 21:39:15 10° SSW 21:42:11 32° SE 21:45:09 10° E visible
25 Jul -3.4 23:15:19 10° W 23:18:33 63° NNW 23:21:47 10° ENE visible
26 Jul -2.6 00:52:11 10° WNW 00:55:19 43° N 00:56:43 26° ENE visible
26 Jul -1.3 02:28:44 10° WNW 02:29:15 14° WNW 02:29:15 14° WNW visible
26 Jul -3.9 22:22:55 10° WSW 22:26:10 87° NNW 22:29:26 10° ENE visible
26 Jul -2.6 23:59:43 10° WNW 00:02:51 43° N 00:05:18 15° ENE visible
27 Jul -1.9 01:36:23 10° WNW 01:37:53 24° WNW 01:37:53 24° WNW visible
27 Jul -3.8 21:30:36 10° SW 21:33:49 62° SSE 21:37:02 10° ENE visible
27 Jul -2.8 23:07:14 10° W 23:10:23 47° N 23:13:33 10° ENE visible
28 Jul -2.9 00:44:01 10° WNW 00:46:53 48° NNW 00:46:53 48° NNW visible
28 Jul -3.2 22:14:43 10° W 22:17:56 57° NNW 22:21:09 10° ENE visible
28 Jul -2.7 23:51:36 10° WNW 23:54:43 44° N 23:56:00 28° ENE visible
29 Jul -1.2 01:28:07 10° WNW 01:28:36 14° WNW 01:28:36 14° WNW visible
29 Jul -2.6 22:59:06 10° WNW 23:02:14 42° N 23:05:10 11° ENE visible
30 Jul -2.5 00:35:43 10° WNW 00:37:47 35° WNW 00:37:47 35° WNW visible
30 Jul -2.7 22:06:35 10° W 22:09:43 45° N 22:12:52 10° ENE visible
30 Jul -3.2 23:43:18 10° WNW 23:46:31 54° NNE 23:46:59 48° NE visible
